Time,TemperatureF,DewpointF,PressureIn,WindDirection,WindDirectionDegrees,WindSpeedMPH,WindSpeedGustMPH,Humidity,HourlyPrecipIn,Conditions,Clouds,dailyrainin,SolarRadiationWatts/m^2,SoftwareType,DateUTC
2013-05-12 01:00:00,64.0,58.0,30.15,NNE,14,3.0,-999.0,80,0.00,,,-99.99,-1.500000,,2013-05-12 08:00:00,
2013-05-12 01:21:00,64.0,58.0,30.15,NNE,14,3.0,-999.0,80,0.00,,,-99.99,-1.500000,,2013-05-12 08:21:00,
2013-05-12 01:32:00,64.0,58.0,30.15,NNE,14,3.0,-999.0,80,0.00,,,-99.99,-1.500000,,2013-05-12 08:32:00,
2013-05-12 01:42:00,64.0,58.0,30.15,NNE,14,3.0,-999.0,80,0.00,,,-99.99,-1.500000,,2013-05-12 08:42:00,
2013-05-12 01:53:00,64.0,58.0,30.15,NNE,14,3.0,-999.0,80,0.00,,,-99.99,-1.500000,,2013-05-12 08:53:00,
2013-05-12 02:21:00,60.0,57.0,30.15,North,3,3.0,-999.0,87,0.00,,,-99.99,-2.900000,,2013-05-12 09:21:00,
2013-05-12 02:33:00,60.0,57.0,30.15,North,3,3.0,-999.0,87,0.00,,,-99.99,-2.900000,,2013-05-12 09:33:00,
2013-05-12 02:43:00,60.0,57.0,30.15,North,3,3.0,-999.0,87,0.00,,,-99.99,-2.900000,,2013-05-12 09:43:00,
2013-05-12 03:00:00,62.0,56.0,30.14,West,265,1.0,-999.0,80,0.00,,,-99.99,-1.700000,,2013-05-12 10:00:00,
2013-05-12 03:23:00,62.0,56.0,30.14,West,265,1.0,-999.0,80,0.00,,,-99.99,-1.700000,,2013-05-12 10:23:00,
2013-05-12 03:33:00,62.0,56.0,30.14,West,265,1.0,-999.0,80,0.00,,,-99.99,-1.700000,,2013-05-12 10:33:00,
2013-05-12 03:42:00,62.0,56.0,30.14,West,265,1.0,-999.0,80,0.00,,,-99.99,-1.700000,,2013-05-12 10:42:00,
2013-05-12 03:52:00,62.0,56.0,30.14,West,265,1.0,-999.0,80,0.00,,,-99.99,-1.700000,,2013-05-12 10:52:00,
2013-05-12 04:00:00,61.0,54.0,30.13,WNW,294,1.0,-999.0,77,0.00,,,-99.99,-2.200000,,2013-05-12 11:00:00,
2013-05-12 04:22:00,61.0,54.0,30.13,WNW,294,1.0,-999.0,77,0.00,,,-99.99,-2.200000,,2013-05-12 11:22:00,
2013-05-12 04:32:00,61.0,54.0,30.13,WNW,294,1.0,-999.0,77,0.00,,,-99.99,-2.200000,,2013-05-12 11:32:00,
2013-05-12 04:42:00,61.0,54.0,30.13,WNW,294,1.0,-999.0,77,0.00,,,-99.99,-2.200000,,2013-05-12 11:42:00,
2013-05-12 04:52:00,61.0,54.0,30.13,WNW,294,1.0,-999.0,77,0.00,,,-99.99,-2.200000,,2013-05-12 11:52:00,
2013-05-12 05:00:00,60.0,53.0,30.12,NNW,340,1.0,-999.0,77,0.00,,,-99.99,-1.700000,,2013-05-12 12:00:00,
2013-05-12 05:22:00,60.0,53.0,30.12,NNW,340,1.0,-999.0,77,0.00,,,-99.99,-1.700000,,2013-05-12 12:22:00,
2013-05-12 05:32:00,60.0,53.0,30.12,NNW,340,1.0,-999.0,77,0.00,,,-99.99,-1.700000,,2013-05-12 12:32:00,
2013-05-12 05:42:00,60.0,53.0,30.12,NNW,340,1.0,-999.0,77,0.00,,,-99.99,-1.700000,,2013-05-12 12:42:00,
2013-05-12 05:52:00,60.0,53.0,30.12,NNW,340,1.0,-999.0,77,0.00,,,-99.99,-1.700000,,2013-05-12 12:52:00,
2013-05-12 07:00:00,62.0,51.0,30.14,NNE,19,5.0,-999.0,67,0.00,,,-99.99,27.000000,,2013-05-12 14:00:00,
2013-05-12 07:21:00,62.0,51.0,30.14,NNE,19,5.0,-999.0,67,0.00,,,-99.99,27.000000,,2013-05-12 14:21:00,
2013-05-12 07:32:00,62.0,51.0,30.14,NNE,19,5.0,-999.0,67,0.00,,,-99.99,27.000000,,2013-05-12 14:32:00,
2013-05-12 07:42:00,62.0,51.0,30.14,NNE,19,5.0,-999.0,67,0.00,,,-99.99,27.000000,,2013-05-12 14:42:00,
2013-05-12 07:52:00,62.0,51.0,30.14,NNE,19,5.0,-999.0,67,0.00,,,-99.99,27.000000,,2013-05-12 14:52:00,
2013-05-12 08:00:00,67.0,54.0,30.15,North,5,4.0,-999.0,63,0.00,,,-99.99,181.399994,,2013-05-12 15:00:00,
2013-05-12 08:21:00,67.0,54.0,30.15,North,5,4.0,-999.0,63,0.00,,,-99.99,181.399994,,2013-05-12 15:21:00,
2013-05-12 08:34:00,67.0,54.0,30.15,North,5,4.0,-999.0,63,0.00,,,-99.99,181.399994,,2013-05-12 15:34:00,
2013-05-12 08:42:00,67.0,54.0,30.15,North,5,4.0,-999.0,63,0.00,,,-99.99,181.399994,,2013-05-12 15:42:00,
2013-05-12 08:53:00,67.0,54.0,30.15,North,5,4.0,-999.0,63,0.00,,,-99.99,181.399994,,2013-05-12 15:53:00,
2013-05-12 09:00:00,73.0,54.0,30.17,North,10,3.0,-999.0,51,0.00,,,-99.99,423.100006,,2013-05-12 16:00:00,
2013-05-12 09:23:00,73.0,54.0,30.17,North,10,3.0,-999.0,51,0.00,,,-99.99,423.100006,,2013-05-12 16:23:00,
2013-05-12 09:33:00,73.0,54.0,30.17,North,10,3.0,-999.0,51,0.00,,,-99.99,423.100006,,2013-05-12 16:33:00,
2013-05-12 09:42:00,73.0,54.0,30.17,North,10,3.0,-999.0,51,0.00,,,-99.99,423.100006,,2013-05-12 16:42:00,
2013-05-12 09:52:00,73.0,54.0,30.17,North,10,3.0,-999.0,51,0.00,,,-99.99,423.100006,,2013-05-12 16:52:00,
2013-05-12 11:00:00,82.0,52.0,30.18,SE,145,4.0,-999.0,35,0.00,,,-99.99,725.799988,,2013-05-12 18:00:00,
2013-05-12 11:22:00,82.0,52.0,30.18,SE,145,4.0,-999.0,35,0.00,,,-99.99,725.799988,,2013-05-12 18:22:00,
2013-05-12 11:32:00,82.0,52.0,30.18,SE,145,4.0,-999.0,35,0.00,,,-99.99,725.799988,,2013-05-12 18:32:00,
2013-05-12 11:42:00,82.0,52.0,30.18,SE,145,4.0,-999.0,35,0.00,,,-99.99,725.799988,,2013-05-12 18:42:00,
2013-05-12 11:52:00,82.0,52.0,30.18,SE,145,4.0,-999.0,35,0.00,,,-99.99,725.799988,,2013-05-12 18:52:00,
2013-05-12 12:00:00,85.0,49.0,30.18,SE,140,2.0,-999.0,28,0.00,,,-99.99,861.400024,,2013-05-12 19:00:00,
2013-05-12 12:22:00,85.0,49.0,30.18,SE,140,2.0,-999.0,28,0.00,,,-99.99,861.400024,,2013-05-12 19:22:00,
2013-05-12 12:32:00,85.0,49.0,30.18,SE,140,2.0,-999.0,28,0.00,,,-99.99,861.400024,,2013-05-12 19:32:00,
2013-05-12 12:42:00,85.0,49.0,30.18,SE,140,2.0,-999.0,28,0.00,,,-99.99,861.400024,,2013-05-12 19:42:00,
2013-05-12 12:52:00,85.0,49.0,30.18,SE,140,2.0,-999.0,28,0.00,,,-99.99,861.400024,,2013-05-12 19:52:00,
2013-05-12 13:00:00,87.0,47.0,30.17,SSE,151,2.0,-999.0,24,0.00,,,-99.99,930.000000,,2013-05-12 20:00:00,
2013-05-12 13:22:00,87.0,47.0,30.17,SSE,151,2.0,-999.0,24,0.00,,,-99.99,930.000000,,2013-05-12 20:22:00,
2013-05-12 13:32:00,87.0,47.0,30.17,SSE,151,2.0,-999.0,24,0.00,,,-99.99,930.000000,,2013-05-12 20:32:00,
2013-05-12 13:42:00,87.0,47.0,30.17,SSE,151,2.0,-999.0,24,0.00,,,-99.99,930.000000,,2013-05-12 20:42:00,
2013-05-12 13:52:00,87.0,47.0,30.17,SSE,151,2.0,-999.0,24,0.00,,,-99.99,930.000000,,2013-05-12 20:52:00,
2013-05-12 14:00:00,88.0,46.0,30.17,WSW,255,3.0,-999.0,23,0.00,,,-99.99,926.599976,,2013-05-12 21:00:00,
2013-05-12 14:22:00,88.0,46.0,30.17,WSW,255,3.0,-999.0,23,0.00,,,-99.99,926.599976,,2013-05-12 21:22:00,
2013-05-12 14:33:00,88.0,46.0,30.17,WSW,255,3.0,-999.0,23,0.00,,,-99.99,926.599976,,2013-05-12 21:33:00,
2013-05-12 14:42:00,88.0,46.0,30.17,WSW,255,3.0,-999.0,23,0.00,,,-99.99,926.599976,,2013-05-12 21:42:00,
2013-05-12 14:53:00,88.0,46.0,30.17,WSW,255,3.0,-999.0,23,0.00,,,-99.99,926.599976,,2013-05-12 21:53:00,
2013-05-12 15:00:00,89.0,43.0,30.15,WSW,254,2.0,-999.0,20,0.00,,,-99.99,884.700012,,2013-05-12 22:00:00,
2013-05-12 15:23:00,89.0,43.0,30.15,WSW,254,2.0,-999.0,20,0.00,,,-99.99,884.700012,,2013-05-12 22:23:00,
2013-05-12 15:33:00,89.0,43.0,30.15,WSW,254,2.0,-999.0,20,0.00,,,-99.99,884.700012,,2013-05-12 22:33:00,
2013-05-12 15:42:00,89.0,43.0,30.15,WSW,254,2.0,-999.0,20,0.00,,,-99.99,884.700012,,2013-05-12 22:42:00,
2013-05-12 15:52:00,89.0,43.0,30.15,WSW,254,2.0,-999.0,20,0.00,,,-99.99,884.700012,,2013-05-12 22:52:00,
2013-05-12 16:00:00,89.0,40.0,30.13,South,176,3.0,-999.0,17,0.00,,,-99.99,758.400024,,2013-05-12 23:00:00,
2013-05-12 16:22:00,89.0,40.0,30.13,South,176,3.0,-999.0,17,0.00,,,-99.99,758.400024,,2013-05-12 23:22:00,
2013-05-12 16:32:00,89.0,40.0,30.13,South,176,3.0,-999.0,17,0.00,,,-99.99,758.400024,,2013-05-12 23:32:00,
2013-05-12 16:42:00,89.0,40.0,30.13,South,176,3.0,-999.0,17,0.00,,,-99.99,758.400024,,2013-05-12 23:42:00,
2013-05-12 16:52:00,89.0,40.0,30.13,South,176,3.0,-999.0,17,0.00,,,-99.99,758.400024,,2013-05-12 23:52:00,
2013-05-12 17:00:00,88.0,44.0,30.12,WSW,250,1.0,-999.0,21,0.00,,,-99.99,573.299988,,2013-05-13 00:00:00,
2013-05-12 17:22:00,88.0,44.0,30.12,WSW,250,1.0,-999.0,21,0.00,,,-99.99,573.299988,,2013-05-13 00:22:00,
2013-05-12 17:32:00,88.0,44.0,30.12,WSW,250,1.0,-999.0,21,0.00,,,-99.99,573.299988,,2013-05-13 00:32:00,
2013-05-12 17:42:00,88.0,44.0,30.12,WSW,250,1.0,-999.0,21,0.00,,,-99.99,573.299988,,2013-05-13 00:42:00,
2013-05-12 17:52:00,88.0,44.0,30.12,WSW,250,1.0,-999.0,21,0.00,,,-99.99,573.299988,,2013-05-13 00:52:00,
2013-05-12 18:00:00,88.0,43.0,30.11,SSE,158,3.0,-999.0,20,0.00,,,-99.99,423.200012,,2013-05-13 01:00:00,
2013-05-12 18:22:00,88.0,43.0,30.11,SSE,158,3.0,-999.0,20,0.00,,,-99.99,423.200012,,2013-05-13 01:22:00,
2013-05-12 18:32:00,88.0,43.0,30.11,SSE,158,3.0,-999.0,20,0.00,,,-99.99,423.200012,,2013-05-13 01:32:00,
2013-05-12 18:42:00,88.0,43.0,30.11,SSE,158,3.0,-999.0,20,0.00,,,-99.99,423.200012,,2013-05-13 01:42:00,
2013-05-12 18:52:00,88.0,43.0,30.11,SSE,158,3.0,-999.0,20,0.00,,,-99.99,423.200012,,2013-05-13 01:52:00,
2013-05-12 19:00:00,81.0,45.0,30.08,WSW,251,0.0,-999.0,28,0.00,,,-99.99,179.899994,,2013-05-13 02:00:00,
2013-05-12 19:21:00,81.0,45.0,30.08,WSW,251,0.0,-999.0,28,0.00,,,-99.99,179.899994,,2013-05-13 02:21:00,
2013-05-12 19:32:00,81.0,45.0,30.08,WSW,251,0.0,-999.0,28,0.00,,,-99.99,179.899994,,2013-05-13 02:32:00,
2013-05-12 19:42:00,81.0,45.0,30.08,WSW,251,0.0,-999.0,28,0.00,,,-99.99,179.899994,,2013-05-13 02:42:00,
2013-05-12 19:52:00,81.0,45.0,30.08,WSW,251,0.0,-999.0,28,0.00,,,-99.99,179.899994,,2013-05-13 02:52:00,
2013-05-12 20:22:00,71.0,51.0,30.07,NW,304,0.0,-999.0,49,0.00,,,-99.99,18.700001,,2013-05-13 03:22:00,
2013-05-12 20:33:00,71.0,51.0,30.07,NW,304,0.0,-999.0,49,0.00,,,-99.99,18.700001,,2013-05-13 03:33:00,
2013-05-12 21:23:00,65.0,49.0,30.07,NW,324,0.0,-999.0,56,0.00,,,-99.99,-2.800000,,2013-05-13 04:23:00,
2013-05-12 21:33:00,65.0,49.0,30.07,NW,324,0.0,-999.0,56,0.00,,,-99.99,-2.800000,,2013-05-13 04:33:00,
2013-05-12 22:22:00,62.0,49.0,30.08,North,0,0.0,-999.0,62,0.00,,,-99.99,-2.400000,,2013-05-13 05:22:00,
2013-05-12 22:32:00,62.0,49.0,30.08,North,0,0.0,-999.0,62,0.00,,,-99.99,-2.400000,,2013-05-13 05:32:00,
2013-05-12 23:22:00,60.0,50.0,30.07,NNW,345,0.0,-999.0,68,0.00,,,-99.99,-1.600000,,2013-05-13 06:22:00,
2013-05-12 23:32:00,60.0,50.0,30.07,NNW,345,0.0,-999.0,68,0.00,,,-99.99,-1.600000,,2013-05-13 06:32:00,